Location: McCloud Nature Park
(39.8272°N, 86.6824°W)
Time: 11:45:13
(UTC-05:00)

Amateur Radio Satellites - All Passes

Search period start: 25 October 2014 11:15
Search period end: 26 October 2014 11:15
Location: McCloud Nature Park, 39.8272°N, 86.6824°W

Satellite Date Start Highest point End Downlink Frequencies (MHz)
Time Altitude Azimuth
ISS 25 Oct 11:21:49 11:23:30 13° 129° (SE) 11:25:11 145.800 FM
Sapphire 25 Oct 11:31:09 11:34:19 15° 43° (NE) 11:37:29 437.095 MHz 1200 baud AX-25 AFSK
Oscar 10/S400 25 Oct 11:38:56 11:57:58 25° 151° (SSE) 12:12:17 145.825 - 145.975 CW/USB, Beacon 145.810 USB
ZACube-1 25 Oct 11:42:08 11:46:07 40° 288° (WNW) 11:50:01 437.345 MHz
UKube-1 25 Oct 11:47:18 11:50:01 16° 296° (WNW) 11:52:44 145.840 MHz, 145.915 MHz
PCSat 25 Oct 11:52:56 11:57:13 23° 48° (NE) 12:01:30 145.825 MHz
SO-50 25 Oct 11:54:19 11:57:42 21° 111° (ESE) 12:01:09 436.795 FM
KITSAT 1 25 Oct 11:54:46 12:02:40 63° 114° (ESE) 12:10:37 435.175 FM
HO-68 25 Oct 12:07:42 12:11:14 15° 308° (NW) 12:14:46 435.675 MHz FM
Oscar 16 25 Oct 12:20:16 12:23:54 20° 64° (ENE) 12:27:32 437.025 USB, Beacon 2401.1428
FUNcube-1 25 Oct 12:28:14 12:30:24 14° 296° (WNW) 12:32:33 145.950 - 145.970 MHz USB
Uribyol 2 25 Oct 12:42:14 12:44:46 14° 60° (ENE) 12:47:19 436.500 FM
ITAMSAT 1 25 Oct 12:48:08 12:50:56 15° 61° (ENE) 12:53:43 435.822 SSB
ISS 25 Oct 12:56:30 12:59:48 64° 325° (NW) 13:03:07 145.800 FM
Oscar 19 25 Oct 13:11:53 13:16:55 57° 73° (ENE) 13:21:58 437.125 CW, 437.150 USB
Gurwin Techsat 1B 25 Oct 13:12:11 13:14:30 13° 60° (ENE) 13:16:49 435.225 FM
Sapphire 25 Oct 13:13:04 13:18:32 89° 62° (ENE) 13:23:57 437.095 MHz 1200 baud AX-25 AFSK
UOSAT-12 25 Oct 13:16:05 13:18:16 13° 107° (ESE) 13:20:28 437.025 FM, 437.400 FM
TMSAT-1 25 Oct 13:23:26 13:25:22 12° 59° (ENE) 13:27:18 436.925 FM
JAS-1B 25 Oct 13:29:44 13:35:41 70° 73° (ENE) 13:41:19 435.800 - 435.900 CW/SSB
AO-27 25 Oct 13:31:34 13:36:19 37° 69° (ENE) 13:41:05 436.795 MHz FM
SO-50 25 Oct 13:33:42 13:37:57 40° 308° (NW) 13:42:21 436.795 FM
PCSat 25 Oct 13:35:41 13:40:58 55° 247° (WSW) 13:46:13 145.825 MHz
AO-Echo 25 Oct 13:47:40 13:52:28 64° 74° (ENE) 13:57:29 ?
KITSAT 1 25 Oct 13:51:25 13:58:32 33° 315° (NW) 14:05:42 435.175 FM
Oscar 16 25 Oct 13:57:50 14:02:51 51° 260° (W) 14:07:53 437.025 USB, Beacon 2401.1428
Uribyol 2 25 Oct 14:18:20 14:23:33 78° 257° (WSW) 14:28:49 436.500 FM
ITAMSAT 1 25 Oct 14:24:35 14:29:46 72° 257° (WSW) 14:35:01 435.822 SSB
ISS 25 Oct 14:34:54 14:37:01 16° 343° (NNW) 14:39:08 145.800 FM
Saudisat 1A 25 Oct 14:40:29 14:41:47 11° 38° (NE) 14:43:06 436.775 MHz
Gurwin Techsat 1B 25 Oct 14:48:24 14:53:43 84° 256° (WSW) 14:59:04 435.225 FM
UOSAT-12 25 Oct 14:53:12 14:57:48 67° 304° (NW) 15:02:31 437.025 FM, 437.400 FM
Oscar 19 25 Oct 14:53:29 14:56:37 16° 268° (W) 14:59:45 437.125 CW, 437.150 USB
TMSAT-1 25 Oct 14:59:10 15:04:29 90° 253° (WSW) 15:09:49 436.925 FM
Sapphire 25 Oct 14:59:36 15:01:07 11° 258° (WSW) 15:02:37 437.095 MHz 1200 baud AX-25 AFSK
AO-27 25 Oct 15:11:34 15:15:52 26° 265° (W) 15:20:13 436.795 MHz FM
AO-7 25 Oct 15:18:01 15:25:46 47° 63° (ENE) 15:33:32 29.400 - 29.500 MHz
JAS-1B 25 Oct 15:24:11 15:26:55 13° 269° (W) 15:29:37 435.800 - 435.900 CW/SSB
AO-Echo 25 Oct 15:29:21 15:31:44 14° 270° (W) 15:34:09 ?
Uosat F 25 Oct 15:33:53 15:38:10 29° 67° (ENE) 15:42:28 435.120 FM
KITSAT 1 25 Oct 15:54:44 15:57:00 11° 342° (NNW) 15:59:16 435.175 FM
JAS-2 25 Oct 16:09:10 16:13:32 21° 58° (ENE) 16:18:15 435.800 - 435.900 CW/SSB, 435.910 FM
ISS 25 Oct 16:13:45 16:14:49 11° 4° (N) 16:15:54 145.800 FM
Saudisat 1A 25 Oct 16:17:42 16:22:08 74° 57° (ENE) 16:26:32 436.775 MHz
UOSAT-12 25 Oct 16:37:20 16:38:52 11° 324° (NW) 16:40:24 437.025 FM, 437.400 FM
AO-40 25 Oct 16:50:10 23:03:27 43° 184° (S) 04:58:24 Beacon 2401.320
AO-7 25 Oct 17:11:01 17:18:35 39° 261° (W) 17:26:13 29.400 - 29.500 MHz
Uosat F 25 Oct 17:12:24 17:16:51 32° 263° (W) 17:21:20 435.120 FM
OPAL 25 Oct 17:18:53 17:22:54 24° 97° (E) 17:26:53 ?
ISS 25 Oct 17:49:46 17:52:29 22° 24° (NNE) 17:55:11 145.800 FM
Hamsat 25 Oct 17:50:54 17:55:07 88° 257° (WSW) 17:59:19 145.90 MHz
JAS-2 25 Oct 17:51:57 17:57:47 67° 259° (W) 18:04:30 435.800 - 435.900 CW/SSB, 435.910 FM
KITSAT 1 25 Oct 17:56:03 17:57:09 10° 15° (NNE) 17:58:16 435.175 FM
Saudisat 1A 25 Oct 18:00:01 18:01:04 11° 253° (WSW) 18:02:07 436.775 MHz
SO-67 25 Oct 18:30:14 18:33:09 26° 72° (ENE) 18:36:04 435.3500 MHz FM
OPAL 25 Oct 18:57:19 19:01:51 36° 293° (WNW) 19:06:20 ?
HO-68 25 Oct 19:01:27 19:05:12 15° 53° (NE) 19:08:56 435.675 MHz FM
STRAND 1 25 Oct 19:04:11 19:08:52 34° 97° (E) 19:13:31 ?
ISS 25 Oct 19:26:06 19:29:23 56° 221° (SW) 19:32:39 145.800 FM
KITSAT 1 25 Oct 19:49:04 19:55:54 29° 43° (NE) 20:02:42 435.175 FM
SO-67 25 Oct 20:04:02 20:06:08 15° 267° (W) 20:08:15 435.3500 MHz FM
RS-15 25 Oct 20:06:47 20:12:31 16° 98° (E) 20:18:12 29.354 - 29.394 USB, Beacon 29.352 USB
SO-50 25 Oct 20:25:49 20:29:28 21° 45° (NE) 20:33:09 436.795 FM
STRAND 1 25 Oct 20:43:35 20:47:54 28° 293° (WNW) 20:52:13 ?
HO-68 25 Oct 20:44:36 20:51:44 78° 72° (ENE) 20:58:56 435.675 MHz FM
ZACube-1 25 Oct 21:03:14 21:05:39 14° 64° (ENE) 21:08:03 437.345 MHz
UKube-1 25 Oct 21:04:44 21:08:42 36° 70° (ENE) 21:12:42 145.840 MHz, 145.915 MHz
KITSAT 1 25 Oct 21:43:59 21:52:02 74° 244° (WSW) 22:00:02 435.175 FM
Oscar 11 25 Oct 21:44:58 21:49:18 90° 259° (W) 21:53:39 145.825 FM, Beacon 2401.500 USB
UOSAT-12 25 Oct 21:45:02 21:47:24 14° 39° (NE) 21:49:45 437.025 FM, 437.400 FM
FUNcube-1 25 Oct 21:45:36 21:49:50 38° 72° (ENE) 21:54:01 145.950 - 145.970 MHz USB
SO-50 25 Oct 22:05:37 22:10:23 57° 242° (WSW) 22:15:09 436.795 FM
RS-15 25 Oct 22:11:56 22:22:55 78° 117° (ESE) 22:33:49 29.354 - 29.394 USB, Beacon 29.352 USB
HO-68 25 Oct 22:35:27 22:40:07 18° 269° (W) 22:44:49 435.675 MHz FM
ZACube-1 25 Oct 22:37:02 22:41:34 58° 260° (W) 22:46:03 437.345 MHz
UKube-1 25 Oct 22:41:52 22:44:59 19° 266° (W) 22:48:07 145.840 MHz, 145.915 MHz
MaSat-1 25 Oct 23:12:38 23:16:39 48° 112° (ESE) 23:20:18 437.345 MHz
FUNcube-1 25 Oct 23:22:59 23:26:18 20° 266° (W) 23:29:36 145.950 - 145.970 MHz USB
UOSAT-12 25 Oct 23:23:33 23:28:18 84° 58° (ENE) 23:32:56 437.025 FM, 437.400 FM
KITSAT 1 25 Oct 23:43:02 23:46:01 12° 262° (W) 23:49:00 435.175 FM
RS-15 26 Oct 00:26:42 00:36:22 34° 322° (NW) 00:46:07 29.354 - 29.394 USB, Beacon 29.352 USB
Oscar 10/S400 26 Oct 00:32:06 01:37:00 26° 238° (WSW) 04:46:25 145.825 - 145.975 CW/USB, Beacon 145.810 USB
MaSat-1 26 Oct 00:50:10 00:52:23 14° 305° (NW) 00:54:29 437.345 MHz
UOSAT-12 26 Oct 01:07:36 01:07:41 10° 254° (WSW) 01:07:47 437.025 FM, 437.400 FM
JAS-1B 26 Oct 01:13:24 01:18:38 22° 95° (E) 01:24:28 435.800 - 435.900 CW/SSB
Oscar 19 26 Oct 01:25:03 01:28:54 21° 94° (E) 01:32:45 437.125 CW, 437.150 USB
AO-27 26 Oct 01:46:56 01:49:30 14° 90° (E) 01:52:03 436.795 MHz FM
AO-Echo 26 Oct 01:56:08 02:00:22 24° 94° (E) 02:04:34 ?
Oscar 16 26 Oct 02:10:08 02:15:13 60° 101° (E) 02:20:15 437.025 USB, Beacon 2401.1428
Sapphire 26 Oct 02:14:42 02:16:38 12° 102° (ESE) 02:18:35 437.095 MHz 1200 baud AX-25 AFSK
Uribyol 2 26 Oct 02:32:07 02:37:01 40° 98° (E) 02:41:51 436.500 FM
PCSat 26 Oct 02:34:44 02:38:44 21° 106° (ESE) 02:42:45 145.825 MHz
ITAMSAT 1 26 Oct 02:38:25 02:43:24 43° 99° (E) 02:48:19 435.822 SSB
RS-15 26 Oct 02:46:34 02:53:31 18° 357° (N) 03:00:33 29.354 - 29.394 USB, Beacon 29.352 USB
JAS-1B 26 Oct 03:02:46 03:09:28 69° 287° (WNW) 03:17:31 435.800 - 435.900 CW/SSB
Oscar 19 26 Oct 03:03:35 03:08:25 43° 290° (WNW) 03:13:13 437.125 CW, 437.150 USB
Gurwin Techsat 1B 26 Oct 03:05:36 03:10:38 42° 98° (E) 03:15:38 435.225 FM
TMSAT-1 26 Oct 03:16:04 03:21:00 38° 98° (E) 03:25:55 436.925 FM
AO-7 26 Oct 03:23:07 03:26:39 13° 88° (E) 03:30:10 29.400 - 29.500 MHz
AO-27 26 Oct 03:24:16 03:29:29 69° 286° (WNW) 03:34:39 436.795 MHz FM
AO-Echo 26 Oct 03:34:15 03:39:15 42° 290° (WNW) 03:44:13 ?
Oscar 16 26 Oct 03:50:53 03:54:03 17° 298° (WNW) 03:57:13 437.025 USB, Beacon 2401.1428
Sapphire 26 Oct 03:53:51 03:59:16 84° 298° (WNW) 04:04:43 437.095 MHz 1200 baud AX-25 AFSK
Uribyol 2 26 Oct 04:12:05 04:16:14 25° 295° (WNW) 04:20:22 436.500 FM
PCSat 26 Oct 04:16:29 04:21:44 51° 303° (WNW) 04:27:02 145.825 MHz
ITAMSAT 1 26 Oct 04:18:32 04:22:35 23° 295° (WNW) 04:26:37 435.822 SSB
OPAL 26 Oct 04:32:42 04:37:32 43° 68° (ENE) 04:42:19 ?
Gurwin Techsat 1B 26 Oct 04:46:07 04:50:20 25° 295° (WNW) 04:54:33 435.225 FM
TMSAT-1 26 Oct 04:56:22 05:00:43 26° 294° (WNW) 05:05:02 436.925 FM
JAS-1B 26 Oct 04:56:58 04:59:12 12° 303° (WNW) 05:01:32 435.800 - 435.900 CW/SSB
RS-15 26 Oct 05:01:51 05:11:10 29° 33° (NNE) 05:20:43 29.354 - 29.394 USB, Beacon 29.352 USB
JAS-2 26 Oct 05:02:13 05:08:13 24° 90° (E) 05:14:09 435.800 - 435.900 CW/SSB, 435.910 FM
AO-7 26 Oct 05:12:18 05:20:39 76° 106° (ESE) 05:28:59 29.400 - 29.500 MHz
Uosat F 26 Oct 05:20:05 05:25:10 84° 104° (ESE) 05:30:13 435.120 FM
Hamsat 26 Oct 05:38:18 05:41:03 17° 93° (E) 05:43:48 145.90 MHz
Sapphire 26 Oct 05:40:33 05:43:32 15° 318° (NW) 05:46:31 437.095 MHz 1200 baud AX-25 AFSK
OPAL 26 Oct 06:12:34 06:16:32 22° 264° (W) 06:20:29 ?
STRAND 1 26 Oct 06:19:17 06:24:10 46° 71° (ENE) 06:29:05 ?
Saudisat 1A 26 Oct 06:24:14 06:27:37 22° 112° (ESE) 06:31:01 436.775 MHz
JAS-2 26 Oct 06:45:58 06:53:45 72° 287° (WNW) 07:01:28 435.800 - 435.900 CW/SSB, 435.910 FM
Uosat F 26 Oct 07:01:20 07:03:13 12° 300° (WNW) 07:05:07 435.120 FM
AO-7 26 Oct 07:06:16 07:12:37 25° 305° (NW) 07:19:00 29.400 - 29.500 MHz
Hamsat 26 Oct 07:13:14 07:17:07 37° 288° (WNW) 07:21:01 145.90 MHz
RS-15 26 Oct 07:14:05 07:25:20 85° 59° (ENE) 07:37:05 29.354 - 29.394 USB, Beacon 29.352 USB
SO-67 26 Oct 07:26:34 07:29:45 34° 97° (E) 07:32:54 435.3500 MHz FM
PANSAT 26 Oct 07:58:49 08:00:59 15° 176° (S) 08:03:09 not established
STRAND 1 26 Oct 07:59:50 08:03:34 20° 267° (W) 08:07:19 ?
Saudisat 1A 26 Oct 08:02:52 08:06:57 37° 308° (NW) 08:11:04 436.775 MHz
HO-68 26 Oct 08:15:48 08:19:16 14° 89° (E) 08:22:42 435.675 MHz FM
JAS-2 26 Oct 08:33:17 08:37:27 16° 305° (NW) 08:41:39 435.800 - 435.900 CW/SSB, 435.910 FM
MaSat-1 26 Oct 08:59:12 09:01:46 66° 64° (ENE) 09:04:08 437.345 MHz
SO-67 26 Oct 09:00:49 09:02:24 13° 293° (WNW) 09:03:58 435.3500 MHz FM
RS-15 26 Oct 09:28:07 09:36:24 25° 258° (WSW) 09:44:59 29.354 - 29.394 USB, Beacon 29.352 USB
Oscar 11 26 Oct 09:34:26 09:37:17 17° 93° (E) 09:40:07 145.825 FM, Beacon 2401.500 USB
PANSAT 26 Oct 09:38:39 09:40:25 13° 189° (S) 09:42:12 not established
HO-68 26 Oct 10:00:37 10:07:52 86° 106° (ESE) 10:15:04 435.675 MHz FM
KITSAT 1 26 Oct 10:19:42 10:24:26 17° 101° (E) 10:29:09 435.175 FM
ZACube-1 26 Oct 10:27:37 10:31:14 27° 96° (E) 10:34:47 437.345 MHz
UKube-1 26 Oct 10:29:13 10:33:36 76° 103° (ESE) 10:37:57 145.840 MHz, 145.915 MHz
Sapphire 26 Oct 11:01:31 11:03:33 12° 39° (NE) 11:05:35 437.095 MHz 1200 baud AX-25 AFSK
